Location: Santa Cristina
(46.5667°N, 11.7167°E)
Time: 05:40:18
(UTC+00:00)

SL-4 R/B - Pass Details

Date: 21 April 2021
Orbit: 427 x 663 km, 51.6° (Epoch: 15 May)

Event Time Altitude Azimuth Distance (km) Brightness Sun altitude
Exits shadow 02:41:12 11° 284° (WNW) 1,995 4.5 -15.2°
Maximum altitude 02:45:18 34° 221° (SW) 1,076 3.0 -14.6°
Drops below altitude 10° 02:49:36 10° 157° (SSE) 2,047 4.8 -14.0°
Sets 02:52:02 0° 148° (SSE) 2,930 5.7 -13.6°
